Terminal Aerodrome Forecast
Issued by NWS Indianapolis, IN

Home | Current Version | Previous Version | Text Only | Print | Product List | Glossary On
Versions: 1 2 3 4 5 6 7 8 9 10 11 12 13 14 15 16 17 18 19 20 21 22 23 24 25 26 27
207
FTUS43 KIND 231720
TAFIND
TAF
KIND 231720Z 2318/2424 24014G19KT 4SM SHRA OVC015
     FM232100 28012G19KT 6SM SHRA OVC008
     FM240100 27007KT P6SM VCSH OVC020
     FM240900 25010KT P6SM OVC030
     FM241400 25012G25KT P6SM OVC015=

USA.gov is the U.S. government's official web portal to all federal, state and local government web resources and services.